Aviation Digital Data Service (ADDS)

Output produced by METARs form (1817 UTC 18 April 2019)
found at http://www.aviationweather.gov/metar/data/
 
Forecast for: HSSS (KHARTOUM (CIV/MI, SD)
Text: TAF HSSS 181700Z 1818/1924 36010G20KT CAVOK
Forecast period: 1800 UTC 18 April 2019 to 0000 UTC 20 April 2019
Forecast type: FROM: standard forecast or significant change
Winds: from the N (360 degrees) at 12 MPH (10 knots; 5.1 m/s)
gusting to 23 MPH (20 knots; 10.3 m/s)
Visibility: 6 or more miles 10+ km)
Ceiling: unknown
Clouds: missing
Weather: NSW  (no significant weather)